Volver al catálogo

STARLINK-2590

ActivoComunicacionesVLEO
NORAD 48397·PAYLOAD·🇺🇸 United States

Lanzado May 4, 2021 desde Cape Canaveral Space Force Station

Loading…

Próximos Pases (próximas 24 horas)

TLE

ActualizadoSource: CelesTrak SupGP

Época: Sep 15, 2026, 00:57 UTC

1 48397C 21038AW  26258.04006944 -.00012065  00000+0 -38805-3 0  2585
2 48397  53.1592 171.4468 0001377  86.4869 330.9501 15.31703283    13

Sigue STARLINK-2590 en tiempo real con AllMySat

Download on the App Store